Track GLOBALSTAR M085 now! 10-day predictions GLOBALSTAR M085 is classified as:
1 37742U 11033D 23086.57374372 -.00000072 00000-0 17880-3 0 9995 2 37742 51.9856 178.8425 0000436 126.3332 338.1403 12.62268305541071